Weather History for Atlantic City, NJ

Change the Weather History Date:

Sunday, November 17, 2013

  Actual Average Record
Temperature  
Mean Temperature 56 °F 46 °F  
Max Temperature 66 °F 56 °F 72 °F (1953)
Min Temperature 45 °F 37 °F 14 °F (1967)
Degree Days  
Heating Degree Days 9 19  
Month to date heating degree days 306 275  
Since 1 July heating degree days 671 633  
Cooling Degree Days 0 0  
Month to date cooling degree days 0 0  
Year to date cooling degree days 1088 1054  
Growing Degree Days 6 (Base 50)    
Moisture  
Dew Point 55 °F    
Average Humidity 89    
Maximum Humidity 100    
Minimum Humidity 78    
Precipitation  
Precipitation T in 0.11 in 3.84 in (1935)
Month to date precipitation 0.56 1.81  
Year to date precipitation 38.07 36.60  
Snow  
Snow 0.00 in 0.00 in 0.00 in (1903)
Month to date snowfall T 0.0  
Since 1 July snowfall T 0.0  
Since 1 September snowfall T 0.0  
Snow Depth 0.00 in    
Sea Level Pressure  
Sea Level Pressure 30.10 in    
Wind  
Wind Speed 4 mph (South)    
Max Wind Speed 15 mph    
Max Gust Speed 20 mph    
Visibility 7 miles    
Events Fog    
T = Trace of Precipitation, MM = Missing Value Source: NWS Daily Summary

Daily Weather History Graph

Daily Weather History Graph

Search for Another Location

Airport:

Trip Planner

Search our weather history database for the weather conditions in past years. The results will help you decide how hot, cold, wet, or windy it might be!

Date:

Astronomy

Nov. 17, 2013 Rise Set
Actual Time 6:44 AM EST 4:41 PM EST
Civil Twilight 6:15 AM EST 5:10 PM EST
Nautical Twilight 5:43 AM EST 5:43 PM EST
Astronomical Twilight 5:11 AM EST 6:14 PM EST
Moon 4:56 PM EST (11/17) 6:36 AM EST (11/17)
Length of Visible Light 10h 54m
Length of Day
9h 56m
Full, 100% of the Moon is Illuminated
Nov 17
Full
Nov 25
Last Quarter
Dec 2
New
Dec 9
First Quarter
Dec 17
Full

Hourly Weather History & Observations

Time (EST) Temp. Dew Point Humidity Pressure Visibility Wind Dir Wind Speed Gust Speed Precip Events Conditions
12:54 AM 46.9 °F 46.0 °F 97% 30.25 in 10.0 mi Calm Calm - N/A   Partly Cloudy
1:54 AM 45.0 °F 45.0 °F 100% 30.24 in 10.0 mi Calm Calm - N/A   Partly Cloudy
2:54 AM 46.9 °F 46.9 °F 100% 30.22 in 10.0 mi Calm Calm - N/A   Mostly Cloudy
3:54 AM 48.9 °F 48.9 °F 100% 30.22 in 10.0 mi SE 3.5 mph - N/A   Overcast
4:20 AM 48.0 °F 48.0 °F 100% 30.21 in 10.0 mi Calm Calm - N/A   Overcast
4:29 AM 48.0 °F 48.0 °F 100% 30.21 in 3.0 mi Calm Calm - N/A   Overcast
4:54 AM 48.9 °F 48.9 °F 100% 30.21 in 3.0 mi Calm Calm - N/A   Overcast
5:28 AM 51.1 °F 51.1 °F 100% 30.21 in 0.2 mi Calm Calm - N/A Fog Fog
5:55 AM 52.0 °F 52.0 °F 100% 30.21 in 2.0 mi Calm Calm - N/A   Overcast
6:52 AM 51.8 °F 51.8 °F 100% 30.20 in 0.1 mi Calm Calm - N/A Fog Fog
6:54 AM 52.0 °F 52.0 °F 100% 30.20 in 0.1 mi Calm Calm - N/A Fog Fog
7:54 AM 53.1 °F 53.1 °F 100% 30.18 in 0.1 mi Calm Calm - N/A Fog Fog
8:54 AM 55.0 °F 55.0 °F 100% 30.18 in 10.0 mi Calm Calm - N/A Fog Fog
9:07 AM 55.0 °F 55.0 °F 100% 30.19 in 0.1 mi Calm Calm - N/A Fog Fog
9:54 AM 57.9 °F 57.9 °F 100% 30.18 in 8.0 mi Calm Calm - N/A   Overcast
10:01 AM 57.0 °F 57.0 °F 100% 30.18 in 0.2 mi Calm Calm - N/A Fog Fog
10:54 AM 59.0 °F 59.0 °F 100% 30.16 in 1.0 mi SSE 3.5 mph - N/A Fog Fog
11:01 AM 60.1 °F 60.1 °F 100% 30.16 in 9.0 mi SSE 4.6 mph - N/A Fog Fog
11:54 AM 60.1 °F 60.1 °F 100% 30.13 in - South 6.9 mph - N/A Fog Fog
12:17 PM 61.0 °F 60.1 °F 97% 30.12 in - South 4.6 mph - N/A   Overcast
12:54 PM 62.1 °F 59.0 °F 90% 30.10 in - SSW 3.5 mph - N/A   Overcast
1:19 PM 64.0 °F 59.0 °F 84% 30.09 in - SSW 6.9 mph - N/A   Mostly Cloudy
1:54 PM 66.0 °F 59.0 °F 78% 30.07 in 10.0 mi South 8.1 mph - N/A   Mostly Cloudy
2:54 PM 64.0 °F 57.9 °F 80% 30.06 in 10.0 mi SSE 5.8 mph - N/A   Overcast
3:54 PM 62.1 °F 57.0 °F 84% 30.04 in 10.0 mi SSE 5.8 mph - N/A   Clear
4:54 PM 57.9 °F 55.9 °F 93% 30.01 in 10.0 mi SE 5.8 mph - N/A   Mostly Cloudy
5:23 PM 57.0 °F 55.9 °F 96% 30.02 in 10.0 mi South 5.8 mph - N/A   Scattered Clouds
5:32 PM 57.0 °F 55.9 °F 96% 30.02 in 10.0 mi South 3.5 mph - N/A   Mostly Cloudy
5:39 PM 57.0 °F 55.9 °F 96% 30.01 in 10.0 mi SSE 4.6 mph - N/A   Mostly Cloudy
5:54 PM 57.0 °F 55.9 °F 96% 30.01 in 10.0 mi SSE 4.6 mph - N/A   Overcast
6:54 PM 57.9 °F 57.0 °F 97% 29.99 in 10.0 mi South 4.6 mph - N/A   Overcast
7:54 PM 59.0 °F 57.0 °F 93% 29.97 in 10.0 mi South 5.8 mph - N/A   Overcast
8:25 PM 60.1 °F 57.9 °F 93% 29.95 in 10.0 mi South 10.4 mph - N/A   Scattered Clouds
8:30 PM 60.1 °F 57.9 °F 93% 29.94 in 10.0 mi South 9.2 mph - N/A   Mostly Cloudy
8:40 PM 60.1 °F 59.0 °F 96% 29.94 in 10.0 mi South 10.4 mph - N/A   Mostly Cloudy
8:54 PM 60.1 °F 59.0 °F 96% 29.92 in 10.0 mi South 11.5 mph - N/A   Overcast
9:54 PM 61.0 °F 59.0 °F 93% 29.89 in 10.0 mi South 11.5 mph - N/A   Overcast
10:54 PM 60.1 °F 60.1 °F 100% 29.85 in 10.0 mi South 10.4 mph 19.6 mph N/A   Overcast
11:54 PM 60.1 °F 60.1 °F 100% 29.82 in 4.0 mi South 9.2 mph - 0.00 in   Overcast